Terminal Aerodrome Forecast
Issued by NWS Pueblo, CO

Home | Current Version | Previous Version | Text Only | Print | Product List | Glossary On
Versions: 1 2 3 4 5 6 7 8 9 10 11 12 13 14 15 16 17 18 19 20 21 22 23 24 25 26 27 28 29 30 31 32 33 34 35 36 37 38 39 40 41 42 43 44 45 46 47 48 49 50
000
FTUS45 KPUB 170108 AAA
TAFCOS
TAF AMD
KCOS 170108Z 1701/1724 26012G22KT P6SM VCTS SCT090CB SCT200
      TEMPO 1701/1702 VRB20G35KT BKN090CB
     FM170200 33008KT P6SM SCT100 BKN140
     FM170600 01007KT P6SM FEW140 SCT250
     FM171600 33010KT P6SM SCT140 SCT250=

USA.gov is the U.S. government's official web portal to all federal, state and local government web resources and services.